When you browse on this site, cookies collect data to enhance your experience and personalize the content and advertising you see.
Visit our Privacy Policy to learn more. By continuing to use the site, you agree to this use of cookies and data.
  • In United Kingdom
  • List of Countries
  • For 7 days
  • Water Temperature
  • Satellite Maps
  • Weather Map
  • Weather Widgets
  • user-avatar
    Login

    Hourly Weather Las Tablas

    Today, 17 July, Wednesday

    Time Temperature Precipitation Wind Pressure Humidity
    00:00 +27°C° 0 mm 3 mps 752 mmHg 88%
    01:00 +27°C° 0 mm 3 mps 752 mmHg 89%
    02:00 +27°C° 0 mm 3 mps 752 mmHg 90%
    03:00 +27°C° 0 mm 3 mps 752 mmHg 91%
    04:00 +27°C° 0 mm 3 mps 751 mmHg 91%
    05:00 +27°C° 0 mm 3 mps 752 mmHg 91%
    06:00 +27°C° 0 mm 3 mps 752 mmHg 90%
    07:00 +27°C° 0 mm 3 mps 752 mmHg 90%
    08:00 +28°C° 0 mm 3 mps 752 mmHg 85%
    09:00 +29°C° 0 mm 3 mps 752 mmHg 80%
    10:00 +32°C° 0 mm 4 mps 752 mmHg 75%
    11:00 +31°C° 0 mm 3 mps 752 mmHg 72%
    12:00 +33°C° 0 mm 3 mps 752 mmHg 69%
    13:00 +33°C° 0 mm 3 mps 752 mmHg 65%
    14:00 +32°C° 0 mm 2 mps 751 mmHg 65%
    15:00 +32°C° 0 mm 2 mps 750 mmHg 64%
    16:00 +32°C° 0 mm 2 mps 750 mmHg 64%
    17:00 +31°C° 0.2 mm 2 mps 750 mmHg 69%
    18:00 +30°C° 0.2 mm 2 mps 750 mmHg 74%
    19:00 +29°C° 0.2 mm 2 mps 750 mmHg 80%
    20:00 +29°C° 0.4 mm 2 mps 751 mmHg 82%
    21:00 +28°C° 0.4 mm 3 mps 751 mmHg 84%
    22:00 +28°C° 0.4 mm 3 mps 752 mmHg 86%
    23:00 +28°C° 0 mm 3 mps 752 mmHg 87%

    Tomorrow, 18 July, Thursday

    Time Temperature Precipitation Wind Pressure Humidity
    00:00 +27°C° 0 mm 3 mps 751 mmHg 88%
    01:00 +27°C° 0 mm 3 mps 751 mmHg 89%
    02:00 +27°C° 0.2 mm 3 mps 751 mmHg 89%
    03:00 +27°C° 0.2 mm 3 mps 751 mmHg 89%
    04:00 +27°C° 0.2 mm 3 mps 750 mmHg 88%
    05:00 +27°C° 0.2 mm 3 mps 751 mmHg 88%
    06:00 +27°C° 0.2 mm 3 mps 751 mmHg 87%
    07:00 +27°C° 0.2 mm 2 mps 751 mmHg 87%
    08:00 +28°C° 0.7 mm 3 mps 751 mmHg 83%
    09:00 +29°C° 0.7 mm 3 mps 752 mmHg 79%
    10:00 +30°C° 0.7 mm 3 mps 752 mmHg 75%
    11:00 +31°C° 0.6 mm 3 mps 751 mmHg 74%
    12:00 +31°C° 0.6 mm 3 mps 751 mmHg 72%
    13:00 +31°C° 0.6 mm 3 mps 751 mmHg 71%
    14:00 +31°C° 0.1 mm 3 mps 750 mmHg 71%
    15:00 +31°C° 0.1 mm 3 mps 750 mmHg 71%
    16:00 +31°C° 0.1 mm 3 mps 749 mmHg 71%
    17:00 +30°C° 0.4 mm 3 mps 749 mmHg 76%
    18:00 +29°C° 0.4 mm 3 mps 749 mmHg 80%
    19:00 +28°C° 0.4 mm 3 mps 750 mmHg 85%
    20:00 +28°C° 0.6 mm 3 mps 750 mmHg 86%
    21:00 +28°C° 0.6 mm 3 mps 751 mmHg 86%
    22:00 +28°C° 0.6 mm 4 mps 751 mmHg 87%
    23:00 +27°C° 0.1 mm 3 mps 751 mmHg 88%

    Day after tomorrow, 19 July, Friday

    Time Temperature Precipitation Wind Pressure Humidity
    00:00 +27°C° 0.1 mm 3 mps 751 mmHg 88%
    01:00 +27°C° 0.1 mm 3 mps 751 mmHg 89%
    02:00 +27°C° 0.1 mm 3 mps 750 mmHg 89%
    03:00 +27°C° 0.1 mm 3 mps 750 mmHg 89%
    04:00 +27°C° 0.1 mm 3 mps 749 mmHg 88%
    05:00 +27°C° 0.6 mm 3 mps 750 mmHg 88%
    06:00 +27°C° 0.6 mm 3 mps 750 mmHg 89%
    07:00 +27°C° 0.6 mm 3 mps 750 mmHg 89%
    08:00 +28°C° 0.2 mm 3 mps 751 mmHg 84%
    09:00 +29°C° 0.2 mm 3 mps 751 mmHg 80%
    10:00 +30°C° 0.2 mm 4 mps 751 mmHg 76%
    11:00 +31°C° 0.1 mm 3 mps 751 mmHg 73%
    12:00 +31°C° 0.1 mm 3 mps 751 mmHg 71%
    13:00 +32°C° 0.1 mm 2 mps 750 mmHg 69%
    14:00 +32°C° 0.2 mm 2 mps 750 mmHg 68%
    15:00 +32°C° 0.2 mm 2 mps 749 mmHg 68%
    16:00 +32°C° 0.2 mm 2 mps 749 mmHg 68%
    17:00 +31°C° 0.1 mm 2 mps 749 mmHg 72%
    18:00 +30°C° 0.1 mm 2 mps 749 mmHg 76%
    19:00 +29°C° 0.1 mm 1 mps 749 mmHg 80%
    20:00 +29°C° 0.1 mm 2 mps 750 mmHg 82%
    21:00 +29°C° 0.1 mm 2 mps 750 mmHg 84%
    22:00 +28°C° 0.1 mm 2 mps 751 mmHg 86%
    23:00 +28°C° 0 mm 2 mps 751 mmHg 87%

    20 July, Saturday

    Time Temperature Precipitation Wind Pressure Humidity
    00:00 +28°C° 0 mm 2 mps 751 mmHg 89%
    01:00 +27°C° 0 mm 2 mps 750 mmHg 90%
    02:00 +27°C° 0.3 mm 3 mps 750 mmHg 90%
    03:00 +27°C° 0.3 mm 3 mps 749 mmHg 90%
    04:00 +27°C° 0.3 mm 3 mps 749 mmHg 90%
    05:00 +27°C° 0.8 mm 3 mps 749 mmHg 90%
    06:00 +27°C° 0.8 mm 2 mps 750 mmHg 89%
    07:00 +27°C° 0.8 mm 2 mps 750 mmHg 89%
    08:00 +28°C° 1.7 mm 2 mps 750 mmHg 85%
    09:00 +29°C° 1.7 mm 2 mps 751 mmHg 81%
    10:00 +30°C° 1.7 mm 2 mps 751 mmHg 77%
    11:00 +30°C° 0.3 mm 1 mps 751 mmHg 75%
    12:00 +31°C° 0.3 mm 1 mps 750 mmHg 72%
    13:00 +31°C° 0.3 mm 1 mps 750 mmHg 70%
    14:00 +31°C° 0 mm 1 mps 749 mmHg 70%
    15:00 +31°C° 0 mm 1 mps 749 mmHg 70%
    16:00 +31°C° 0 mm 1 mps 748 mmHg 71%
    17:00 +30°C° 0 mm 1 mps 748 mmHg 74%
    18:00 +30°C° 0 mm 1 mps 749 mmHg 78%
    19:00 +29°C° 0 mm 1 mps 749 mmHg 81%
    20:00 +29°C° 0.2 mm 1 mps 750 mmHg 83%
    21:00 +28°C° 0.2 mm 1 mps 750 mmHg 84%
    22:00 +28°C° 0.2 mm 2 mps 751 mmHg 86%
    23:00 +28°C° 0.4 mm 2 mps 750 mmHg 87%

    21 July, Sunday

    Time Temperature Precipitation Wind Pressure Humidity
    00:00 +28°C° 0.4 mm 2 mps 750 mmHg 88%
    01:00 +27°C° 0.4 mm 2 mps 750 mmHg 89%
    02:00 +27°C° 0.3 mm 2 mps 750 mmHg 89%
    03:00 +27°C° 0.3 mm 2 mps 749 mmHg 89%
    04:00 +27°C° 0.3 mm 2 mps 749 mmHg 90%
    05:00 +27°C° 0.3 mm 2 mps 749 mmHg 90%
    06:00 +27°C° 0.3 mm 2 mps 750 mmHg 90%
    07:00 +27°C° 0.3 mm 3 mps 750 mmHg 90%
    08:00 +28°C° 0.4 mm 2 mps 750 mmHg 87%
    09:00 +28°C° 0.4 mm 1 mps 751 mmHg 85%
    10:00 +29°C° 0.4 mm 1 mps 751 mmHg 83%
    11:00 +29°C° 1.5 mm 1 mps 751 mmHg 81%
    12:00 +30°C° 1.5 mm 1 mps 750 mmHg 79%
    13:00 +30°C° 1.5 mm 1 mps 750 mmHg 77%
    14:00 +30°C° 0.7 mm 1 mps 750 mmHg 77%
    15:00 +30°C° 0.7 mm 2 mps 749 mmHg 77%
    16:00 +30°C° 0.7 mm 3 mps 749 mmHg 77%
    17:00 +29°C° 1.1 mm 2 mps 749 mmHg 81%
    18:00 +28°C° 1.1 mm 2 mps 750 mmHg 84%
    19:00 +28°C° 1.1 mm 2 mps 750 mmHg 87%
    20:00 +27°C° 0 mm 2 mps 750 mmHg 88%
    21:00 +27°C° 0 mm 2 mps 751 mmHg 88%
    22:00 +27°C° 0 mm 3 mps 751 mmHg 89%
    23:00 +27°C° 0.1 mm 2 mps 751 mmHg 89%

    22 July, Monday

    Time Temperature Precipitation Wind Pressure Humidity
    00:00 +27°C° 0.1 mm 2 mps 751 mmHg 89%
    01:00 +27°C° 0.1 mm 2 mps 751 mmHg 89%
    02:00 +27°C° 0.2 mm 2 mps 750 mmHg 89%
    03:00 +27°C° 0.2 mm 2 mps 750 mmHg 89%
    04:00 +27°C° 0.2 mm 3 mps 750 mmHg 89%
    05:00 +27°C° 0.4 mm 2 mps 750 mmHg 89%
    06:00 +27°C° 0.4 mm 2 mps 751 mmHg 89%
    07:00 +27°C° 0.4 mm 1 mps 751 mmHg 89%
    08:00 +27°C° 0.5 mm 1 mps 751 mmHg 89%
    09:00 +27°C° 0.5 mm 1 mps 752 mmHg 89%
    10:00 +27°C° 0.5 mm 1 mps 752 mmHg 88%
    11:00 +27°C° 0.4 mm 1 mps 752 mmHg 88%
    12:00 +28°C° 0.4 mm 2 mps 752 mmHg 87%
    13:00 +28°C° 0.4 mm 3 mps 751 mmHg 86%
    14:00 +28°C° 0.1 mm 3 mps 751 mmHg 85%
    15:00 +28°C° 0.1 mm 3 mps 751 mmHg 84%
    16:00 +28°C° 0.1 mm 3 mps 750 mmHg 83%
    17:00 +28°C° 1.5 mm 3 mps 751 mmHg 85%
    18:00 +27°C° 1.5 mm 3 mps 751 mmHg 87%
    19:00 +27°C° 1.5 mm 2 mps 752 mmHg 89%
    20:00 +27°C° 0.2 mm 3 mps 752 mmHg 89%
    21:00 +27°C° 0.2 mm 3 mps 752 mmHg 90%
    22:00 +26°C° 0.2 mm 3 mps 753 mmHg 90%
    23:00 +26°C° 0.6 mm 3 mps 752 mmHg 91%
    Show more